SCP
0 0 0 0 0 0 0 0 0 0 0 0 0 0 0 0 0 0 0 0 0 0 0 0 0 0 0 0 0 0 0 0 0 0 0 0 0 0
0 0 0 0 0 0 0 0 0 0 0 0 0 0 0 0 0 0 0 0 0 0 0 0 0 0 0 0 0 0 0 0 0 0 0 0 0 0
0 0 0 0 0 0 0 0 0 0 0 0 0 0 0 0 0 0 0 0 0 0 0 0 0 0 0 0 0 0 0 0 0 0 0 0 0 0
0 0 0 0 0 0 0 0 0 0 0 0 0 0 0 0 0 0 0 0 0 0 0 0 0 0 0 0 0 0 0 0 0 0 0 0 0 0
0 0 0 0 0 0 0 0 0 0 0 0 0 0 0 0 0 0 0 0 0 0 0 0 0 0 0 0 0 0 0 0 0 0 0 0 0 0
0 0 0 0 0 0 0 0 0 0 0 0 0 0 0 0 0 0 0 0 0 0 0 0 0 0 0 0 0 0 0 0 0 0 0 0 0 0
0 0 0 0 0 0 0 0 0 0 0 0 0 0 0 0 0 0 0 0 0 0 0 0 0 0 0 0 0 0 0 0 0 0 0 0 0 0
0 0 0 0 0 0 0 0 0 0 0 0 0 0 0 0 0 0 0 0 0 0 0 0 0 0 0 0 0 0 0 0 0 0 0 0 0 0
0 0 0 0 0 0 0 0 0 0 0 0 0 0 0 0 0 0 0 0 0 0 0 0 0 0 0 0 0 0 0 0 0 0 0 0 0 0
0 0 0 0 0 0 0 0 0 0 0 0 0 0 0 0 0 0 0 0 0 0 0 0 0 0 0 0 0 0 0 0 0 0 0 0 0 0
0 0 0 0 0 0 0 0 0 0 0 0 0 0 0 0 0 0 0 0 0 0 0 0 0 0 0 0 0 0 0 0 0 0 0 0 0 0
0 0 0 0 0 0 0 0 0 0 0 0 0 0 0 0 0 0 0 0 0 0 0 0 0 0 0 0 0 0 0 0 0 0 0 0 0 0
0 0 0 0 0 0 0 0 0 0 0 0 0 0 0 0 0 0 0 0 0 0 0 0 0 0 0 0 0 0 0 0 0 0 0 0 0 0
0 0 0 0 0 0 0 0 0 0 0 0 0 0 0 0 0 0 0 0 0 0 0 0 0 0 0 0 0 0 0 0 0 0 0 0 0 0
0 0 0 0 0 0 0 0 0 0 0 0 0 0 0 0 0 0 0 0 0 0 0 0 0 0 0 0 0 0 0 0 0 0 0 0 0 0
0 0 0 0 0 0 0 0 0 0 0 0 0 0 0 0 0 0 0 0 0 0 0 0 0 0 0 0 0 0 0 0 0 0 0 0 0 0
0 0 0 0 0 0 0 0 0 0 0 0 0 0 0 0 0 0 0 0 0 0 0 0 0 0 0 0 0 0 0 0 0 0 0 0 0 0
0 0 0 0 0 0 0 0 0 0 0 0 0 0 0 0 0 0 0 0 0 0 0 0 0 0 0 0 0 0 0 0 0 0 0 0 0 0
0 0 0 0 0 0 0 0 0 0 0 0 0 0 0 0 0 0 0 0 0 0 0 0 0 0 0 0 0 0 0 0 0 0 0 0 0 0
0 0 0 0 0 0 0 0 0 0 0 0 0 0 0 0 0 0 0 0 0 0 0 0 0 0 0 0 0 0 0 0 0 0 0 0 0 0
0 0 0 0 0 0 0 0 0 0 0 0 0 0 0 0 0 0 0 0 0 0 0 0 0 0 0 0 0 0 0 0 0 0 0 0 0 0
0 0 0 0 0 0 0 0 0 0 0 0 0 0 0 0 0 0 0 0 0 0 0 0 0 0 0 0 0 0 0 0 0 0 0 0 0 0
0 0 0 0 0 0 0 0 0 0 0 0 0 0 0 0 0 0 0 0 0 0 0 0 0 0 0 0 0 0 0 0 0 0 0 0 0 0
Wind_Speed
15 16 14 13 13 13 13 13 14 18 19 18 15 14 12 11 14 14 16 21 25 27 28 28 29 30 31 31 32 31 31 29 27 26 25 25 25 24
13 16 16 13 13 13 13 13 13 15 19 17 14 14 13 11 15 16 17 23 25 26 27 27 28 29 30 31 31 31 31 30 29 28 27 26 26 26
16 16 18 17 14 13 13 13 13 13 18 20 16 14 17 16 14 14 15 16 15 23 26 27 27 28 29 29 30 31 31 31 30 29 29 28 28 27
18 17 18 15 18 15 14 15 14 15 16 22 19 14 16 15 14 15 14 13 14 19 23 25 26 27 28 28 29 30 30 30 30 30 29 29 28 27
18 17 18 18 18 15 16 15 13 13 14 17 19 14 12 11 13 14 16 15 15 16 21 23 25 27 27 27 28 29 29 29 29 28 28 28 27 27
18 18 18 18 18 18 16 16 14 14 14 15 16 14 13 12 11 11 13 13 13 12 15 16 20 24 26 27 28 27 26 27 28 28 28 27 26 26
18 18 18 21 24 21 16 14 13 13 13 14 15 13 12 10 10 10 12 11 12 11 10 11 12 12 14 21 25 25 25 25 26 27 28 27 26 26
16 16 17 19 23 27 29 28 23 16 14 13 13 14 14 14 11 10 11 11 10 8 10 10 9 10 10 10 16 21 22 23 23 24 25 25 25 25
17 16 14 14 20 14 18 24 24 27 26 17 15 15 15 13 12 13 12 12 12 8 6 9 9 10 9 11 19 20 22 23 22 22 22 23 23 23
17 17 17 16 15 15 13 14 15 16 18 14 12 13 14 13 11 11 11 12 11 8 8 7 8 9 8 9 16 20 21 22 23 22 21 21 21 22
16 16 17 17 21 25 17 14 15 13 17 23 23 21 23 23 17 9 9 9 10 9 9 7 7 7 7 8 11 18 20 21 22 23 23 23 23 22
14 14 19 21 23 25 17 14 15 13 12 12 14 16 15 15 18 10 8 9 8 7 9 8 6 6 5 7 8 8 11 17 21 22 23 23 23 15
12 11 11 21 24 25 22 15 17 16 12 11 10 9 8 7 8 8 8 8 9 7 7 9 7 7 6 4 5 7 8 8 10 13 18 22 23 19
13 12 13 23 25 26 20 19 22 19 9 8 8 8 7 8 7 7 7 8 7 7 6 9 7 7 6 6 5 5 7 7 8 8 9 14 18 22
13 20 24 26 24 18 19 22 17 10 8 8 8 7 7 6 5 4 6 6 7 7 6 8 8 6 7 7 6 6 6 7 8 9 9 9 10 11
13 17 23 22 17 16 16 12 8 8 7 7 7 7 5 5 5 5 5 6 6 6 8 9 10 9 8 9 8 7 7 6 6 8 9 9 10 11
16 11 10 9 9 8 8 7 7 7 7 6 6 6 5 5 5 5 5 6 6 6 7 7 7 7 8 8 8 9 9 9 9 8 9 10 11 12
18 10 10 9 9 9 8 8 7 6 6 6 5 5 5 5 5 5 5 6 6 6 6 6 6 6 5 7 12 11 10 10 9 10 11 12 13 12
11 9 9 9 9 8 8 7 7 6 5 5 5 5 5 5 5 5 5 6 6 6 5 5 6 7 9 9 9 15 12 10 10 10 11 12 14 13
8 9 9 9 8 8 7 7 6 5 4 5 5 5 4 5 5 5 5 6 6 6 6 6 7 8 10 9 8 7 14 12 11 12 12 12 13 16
9 9 9 8 8 8 7 6 6 5 5 4 4 4 4 5 5 5 5 7 7 6 7 7 7 9 7 6 8 10 10 15 17 13 13 13 14 14
9 9 9 8 8 7 7 6 5 5 4 4 4 4 4 4 5 6 5 6 6 6 7 6 4 5 7 9 12 12 12 12 15 23 26 23 15 14
10 9 9 8 7 6 6 6 6 5 4 4 4 4 4 4 5 5 5 6 6 6 7 6 6 7 8 10 12 12 15 14 12 13 14 22 30 33
Wind_Direction
264 262 259 258 257 257 257 257 264 277 279 277 274 268 259 255 256 256 256 255 254 253 252 249 247 246 244 243 243 243 243 242 240 238 237 238 239 241
269 268 266 265 263 260 257 256 253 259 273 276 275 274 273 261 260 260 261 262 258 256 254 251 249 246 244 243 242 241 240 239 239 239 238 238 238 239
273 270 268 268 267 265 262 258 254 252 263 274 273 272 269 265 260 259 261 262 259 254 252 252 250 248 245 244 242 241 239 237 237 237 237 238 238 238
278 275 273 272 268 266 263 261 258 254 257 269 275 275 270 267 261 259 260 261 261 259 255 252 252 250 247 244 242 240 239 237 236 236 236 237 238 239
281 278 275 273 271 268 266 263 261 259 256 262 271 274 272 266 262 256 256 257 260 259 257 253 251 251 249 246 244 241 239 237 237 237 237 237 238 239
277 275 274 270 269 269 267 265 264 262 259 260 266 268 266 262 254 253 253 250 252 253 253 251 250 249 247 246 244 241 240 238 237 236 236 236 237 239
275 272 270 268 266 267 264 261 257 257 257 257 260 263 260 254 246 243 249 254 254 248 249 247 246 244 241 243 244 242 240 240 238 238 237 235 234 236
279 277 273 273 271 270 271 271 267 261 259 257 261 260 261 256 249 241 243 247 251 238 238 242 238 241 239 237 238 239 240 241 241 240 237 236 235 235
285 283 281 277 278 273 274 276 277 276 271 268 266 265 267 261 253 244 238 238 243 240 232 242 235 238 237 238 240 239 240 241 242 241 239 237 237 237
284 283 282 281 279 277 268 265 264 265 266 268 262 262 265 265 251 245 245 244 247 239 215 237 235 235 233 233 238 238 239 239 238 238 239 239 239 241
286 283 282 281 280 281 278 272 270 267 267 264 261 261 261 260 250 236 229 231 237 226 207 218 234 232 229 228 229 231 234 236 236 236 237 238 239 240
287 283 282 281 281 283 280 276 275 273 268 266 264 265 266 268 263 245 227 227 230 227 198 201 217 215 229 226 223 219 226 233 235 236 237 237 237 237
289 287 283 285 287 287 285 279 275 276 269 264 261 256 248 241 243 236 222 222 224 224 192 189 209 205 218 224 211 214 217 221 224 231 235 236 236 234
293 290 287 291 291 291 289 284 284 287 279 269 265 257 247 239 232 224 217 219 223 225 199 189 204 205 210 221 222 207 211 218 222 226 227 232 237 239
289 290 293 295 297 295 289 288 288 282 274 269 264 257 250 242 227 215 209 213 217 216 207 200 208 211 218 229 233 226 221 222 223 227 229 230 231 234
294 293 295 293 290 286 287 286 279 272 268 266 267 265 253 228 217 210 207 199 209 208 205 209 215 221 226 230 238 241 233 230 224 227 233 237 237 236
301 295 292 292 289 288 285 281 276 271 268 259 259 255 238 224 217 205 205 200 209 211 199 200 211 220 234 240 239 240 242 242 240 238 237 242 242 240
306 296 295 295 294 293 292 289 282 273 265 260 257 251 240 227 216 201 202 209 217 219 210 192 191 201 219 239 234 244 244 245 245 243 242 246 249 245
302 295 295 295 293 292 290 288 285 279 271 261 254 250 242 230 218 211 208 215 222 223 216 200 199 211 229 243 227 215 234 245 247 245 243 244 251 252
297 295 295 294 293 292 289 288 285 279 266 260 255 249 242 234 226 223 221 223 227 226 222 213 214 221 234 252 260 238 224 238 247 250 251 252 255 258
301 300 298 295 293 292 288 286 282 276 271 266 257 248 242 237 236 233 232 230 232 234 235 234 231 233 245 255 257 252 244 238 241 248 254 256 259 258
301 300 297 294 294 292 290 286 280 273 265 258 256 249 243 241 241 239 238 237 236 241 247 250 238 233 233 241 251 260 261 255 249 250 250 249 252 254
301 300 297 296 293 291 288 284 279 274 269 264 258 252 246 243 243 242 241 241 246 247 250 252 247 242 242 246 254 259 263 263 261 259 254 251 252 256